Weather History for Burlington, CO

Change the Weather History Date:

Thursday, January 23, 2014

  Actual Average Record
Temperature  
Mean Temperature 7 °F 30 °F  
Max Temperature 13 °F 42 °F 75 °F (2009)
Min Temperature 1 °F 17 °F -11 °F (1915)
Degree Days  
Heating Degree Days 58    
Moisture  
Dew Point 1 °F    
Average Humidity 78    
Maximum Humidity 84    
Minimum Humidity 70    
Precipitation  
Precipitation 0.01 in 0.01 in 0.08 in (1939)
Month to date precipitation 0.12 0.22  
Year to date precipitation 0.12 0.22  
Sea Level Pressure  
Sea Level Pressure 30.58 in    
Wind  
Wind Speed 12 mph (ENE)    
Max Wind Speed 20 mph    
Max Gust Speed -    
Visibility 5 miles    
Events Snow    
T = Trace of Precipitation, MM = Missing Value Source: NWS Daily Summary

Daily Weather History Graph

Daily Weather History Graph

Search for Another Location

Airport:

Trip Planner

Search our weather history database for the weather conditions in past years. The results will help you decide how hot, cold, wet, or windy it might be!

Date:

Astronomy

Jan. 23, 2014 Rise Set
Actual Time 7:02 AM MST 4:59 PM MST
Civil Twilight 6:34 AM MST 5:28 PM MST
Nautical Twilight 6:01 AM MST 6:00 PM MST
Astronomical Twilight 5:29 AM MST 6:32 PM MST
Moon No Moon Rise 10:42 AM MST (1/23)
Length of Visible Light 10h 54m
Length of Day
9h 56m
Waning Gibbous, 54% of the Moon is Illuminated
Jan 23
Waning Gibbous
Jan 23
Last Quarter
Jan 30
New
Feb 6
First Quarter
Feb 14
Full

Hourly Weather History & Observations

Time (MST) Temp. Windchill Dew Point Humidity Pressure Visibility Wind Dir Wind Speed Gust Speed Precip Events Conditions
12:05 AM 10.0 °F -6.5 °F 6.1 °F 84% 30.37 in 2.5 mi ENE 15.0 mph - 0.00 in Snow Light Snow
12:19 AM 10.0 °F -7.6 °F 6.1 °F 84% 30.37 in 2.0 mi ENE 17.3 mph - 0.00 in Snow Light Snow
12:31 AM 9.0 °F -8.5 °F 3.9 °F 80% 30.37 in 2.5 mi ENE 16.1 mph - 0.00 in Snow Light Snow
12:46 AM 9.0 °F -7.9 °F 3.9 °F 80% 30.37 in 2.0 mi ENE 15.0 mph - 0.00 in Snow Light Snow
12:53 AM 8.1 °F -9.6 °F 3.0 °F 80% 30.48 in 1.8 mi ENE 16.1 mph - 0.00 in Snow Light Snow
1:23 AM 7.0 °F -11.6 °F 1.9 °F 80% 30.39 in 1.2 mi ENE 17.3 mph - 0.00 in Snow Light Snow
1:53 AM 6.1 °F -10.9 °F 1.9 °F 83% 30.51 in 1.0 mi ENE 13.8 mph - 0.00 in Snow Light Snow
2:40 AM 6.1 °F -10.2 °F 1.0 °F 80% 30.43 in 1.5 mi ENE 12.7 mph - 0.00 in Snow Light Snow
2:53 AM 6.1 °F -10.2 °F 1.0 °F 80% 30.54 in 2.0 mi ENE 12.7 mph - 0.00 in Snow Light Snow
3:07 AM 5.0 °F -10.8 °F 1.0 °F 84% 30.43 in 1.8 mi ENE 11.5 mph - 0.00 in Snow Light Snow
3:16 AM 5.0 °F -11.6 °F -0.0 °F 80% 30.44 in 2.5 mi ENE 12.7 mph - 0.00 in Snow Light Snow
3:24 AM 5.0 °F -9.1 °F -0.0 °F 80% 30.44 in 3.0 mi ENE 9.2 mph - 0.00 in   Haze
3:53 AM 3.9 °F -13.7 °F -0.0 °F 84% 30.57 in 2.5 mi ENE 13.8 mph - 0.00 in   Overcast
4:05 AM 3.9 °F -11.3 °F -0.0 °F 84% 30.46 in 4.0 mi ENE 10.4 mph - N/A   Overcast
4:53 AM 3.9 °F -9.4 °F -0.9 °F 80% 30.62 in 2.5 mi ENE 8.1 mph - N/A   Haze
5:15 AM 3.9 °F -10.4 °F -2.0 °F 76% 30.49 in 3.0 mi ENE 9.2 mph - N/A   Haze
5:36 AM 3.9 °F -11.3 °F -0.9 °F 80% 30.50 in 2.5 mi ENE 10.4 mph - N/A   Haze
5:45 AM 3.9 °F -9.4 °F -2.0 °F 76% 30.50 in 3.0 mi ENE 8.1 mph - N/A   Haze
5:53 AM 3.9 °F -8.2 °F -0.9 °F 80% 30.66 in 3.0 mi ENE 6.9 mph - N/A   Haze
6:49 AM 3.2 °F -7.8 °F -2.2 °F 78% 30.54 in 2.5 mi ENE 5.8 mph - 0.00 in Snow Light Snow
6:53 AM 3.9 °F -6.9 °F -2.0 °F 76% 30.71 in 3.0 mi ENE 5.8 mph - 0.00 in Snow Light Snow
7:24 AM 3.9 °F -5.3 °F -0.9 °F 80% 30.56 in 2.0 mi ENE 4.6 mph - 0.00 in Snow Light Snow
7:53 AM 3.9 °F - -0.9 °F 80% 30.75 in 2.0 mi Calm Calm - 0.01 in Snow Light Snow
8:11 AM 5.0 °F - -0.9 °F 76% 30.58 in 4.0 mi Calm Calm - 0.00 in   Haze
8:53 AM 3.9 °F - -0.9 °F 80% 30.78 in 10.0 mi Calm Calm - 0.00 in   Overcast
9:53 AM 6.1 °F - -0.0 °F 76% 30.79 in 10.0 mi Calm Calm - N/A   Overcast
10:53 AM 7.0 °F -3.3 °F -0.0 °F 73% 30.82 in 10.0 mi WSW 5.8 mph - N/A   Partly Cloudy
11:53 AM 9.0 °F -3.2 °F 1.0 °F 70% 30.80 in 10.0 mi WSW 8.1 mph - N/A   Clear
12:53 PM 10.9 °F -4.1 °F 3.0 °F 70% 30.77 in 10.0 mi WSW 12.7 mph - N/A   Clear
1:53 PM 12.0 °F -4.5 °F 3.9 °F 70% 30.75 in 10.0 mi SW 16.1 mph - N/A   Clear
2:53 PM 12.9 °F -3.4 °F 5.0 °F 71% 30.74 in 10.0 mi WSW 16.1 mph - N/A   Clear
3:53 PM 12.0 °F -1.3 °F 5.0 °F 73% 30.73 in 10.0 mi SW 10.4 mph - N/A   Clear
4:53 PM 7.0 °F -6.6 °F 1.0 °F 77% 30.72 in 10.0 mi SW 9.2 mph - N/A   Clear
5:53 PM 3.0 °F -13.3 °F -2.0 °F 80% 30.71 in 10.0 mi SW 11.5 mph - N/A   Clear
6:53 PM 3.9 °F -13.0 °F -0.9 °F 80% 30.69 in 10.0 mi WSW 12.7 mph - N/A   Clear
7:53 PM 6.1 °F -12.2 °F 1.0 °F 80% 30.66 in 10.0 mi WSW 16.1 mph - N/A   Clear
8:53 PM 7.0 °F -11.6 °F 1.0 °F 77% 30.63 in 10.0 mi SW 17.3 mph - N/A   Clear
9:53 PM 6.1 °F -12.2 °F -0.0 °F 76% 30.63 in 10.0 mi WSW 16.1 mph - N/A   Clear
10:53 PM 10.0 °F -8.1 °F 1.9 °F 70% 30.56 in 10.0 mi WSW 18.4 mph - N/A   Clear
11:53 PM 10.0 °F -8.6 °F 1.9 °F 70% 30.52 in 10.0 mi WSW 19.6 mph - N/A   Clear